Hourly Weather Roundup
Issued by NWS Central Illinois

Home | Current Version | Previous Version | Graphics & Text | Print | Product List | Glossary On
Versions: 1 2 3 4 5 6 7 8 9 10 11 12 13 14 15 16 17 18 19 20 21 22 23 24 25 26 27 28 29 30 31 32 33 34 35 36 37 38 39 40 41 42 43 44 45 46 47 48 49 50
000
NZUS43 KILX 030610
HWRILX

AREA WEATHER ROUNDUP
NATIONAL WEATHER SERVICE, LINCOLN IL
100 AM CDT FRI JUL 03 2015


CITY           SKY/WX    TMP DP  RH WIND       PRES   REMARKS
BLOOMINGTON    CLOUDY    61  59  93 NE8       29.97R
6HR MIN TEMP:  61; 6HR MAX TEMP:  73;

CHAMPAIGN      CLOUDY    65  60  84 NE13      29.93R
6HR MIN TEMP:  65; 6HR MAX TEMP:  74;

DANVILLE       CLOUDY    64  61  90 NE6       29.90F
6HR MIN TEMP:  64; 6HR MAX TEMP:  73;

DECATUR        CLOUDY    65  60  84 N7        29.93R
6HR MIN TEMP:  65; 6HR MAX TEMP:  72;

EFFINGHAM      MOCLDY    69  64  83 CALM      29.91F
FLORA          PTCLDY    69  66  89 N5        29.89F
6HR MIN TEMP:  69; 6HR MAX TEMP:  76;

GALESBURG      CLOUDY    63  57  82 E5        29.97S
JACKSONVILLE   CLOUDY    66  63  87 N3        29.94R
6HR MIN TEMP:  66; 6HR MAX TEMP:  72;

LACON          CLOUDY    61  55  81 NE5       29.96F
6HR MIN TEMP:  61; 6HR MAX TEMP:  70;

LAWRENCEVILLE  PTCLDY    70  68  93 N3        29.87S
6HR MIN TEMP:  70; 6HR MAX TEMP:  76;

LITCHFIELD     PTCLDY    64  62  90 N3        29.91F
$$


CITY           SKY/WX    TMP DP  RH WIND       PRES   REMARKS
LINCOLN        CLOUDY    64  59  83 NE5       29.94F
6HR MIN TEMP:  64; 6HR MAX TEMP:  73;

MACOMB         CLOUDY    63  60  92 N3        29.98S
MATTOON        MOCLDY    66  63  90 N7        29.90S
6HR MIN TEMP:  66; 6HR MAX TEMP:  74;

MT CARMEL AP   PTCLDY    72  68  88 N5        29.87F FOG
OLNEY-NOBLE AP MOCLDY    70  66  88 N3        29.88F
PARIS          CLOUDY    68  64  88 NE6       29.91S
6HR MIN TEMP:  68; 6HR MAX TEMP:  75;

PEORIA         CLOUDY    67  56  67 NE12      29.96R
6HR MIN TEMP:  67; 6HR MAX TEMP:  73;

PONTIAC        CLOUDY    60  57  88 NE8       29.97S
RANTOUL        CLOUDY    64  61  87 NE9       29.94S
6HR MIN TEMP:  64; 6HR MAX TEMP:  76;

ROBINSON       CLOUDY    69  67  94 N6        29.89S
6HR MIN TEMP:  69; 6HR MAX TEMP:  76;

SPRINGFIELD    LGT RAIN  68  61  78 NE7       29.93S
6HR MIN TEMP:  67; 6HR MAX TEMP:  74; 6HR PCP: TRACE;

TAYLORVILLE    MOCLDY    63  61  94 N5        29.92F
$$

...REGIONAL REPORTS...


CITY           SKY/WX    TMP DP  RH WIND       PRES   REMARKS
CHICAGO O`HARE CLOUDY    57  48  72 N3        30.00S
KANKAKEE       MOCLDY    59  57  94 NE7       29.97F
MOLINE         CLOUDY    63  58  83 SE3       29.98R
MOUNT STERLING NOT AVBL
MOUNT VERNON   PTCLDY    68  63  83 CALM      29.89F
PITTSFIELD     MOCLDY    65  61  86 N3        29.95F
QUINCY         CLOUDY    64  60  87 N6        29.96R
ROCKFORD       CLOUDY    58  51  78 NE5       30.02R
$$


CITY           SKY/WX    TMP DP  RH WIND       PRES   REMARKS
BURLINGTON     CLOUDY    65  59  81 NE6       29.97R
CEDAR RAPIDS   CLOUDY    61  56  83 CALM      29.99R
DES MOINES     CLOUDY    63  56  78 NE3       29.99S
KIRKSVILLE     CLOUDY    63  60  90 N3        29.98S
OTTUMWA        CLOUDY    63  57  81 NE3       29.97S
ST LOUIS       CLOUDY    70  62  76 N3        29.92F
$$


CITY           SKY/WX    TMP DP  RH WIND       PRES   REMARKS
TERRE HAUTE    CLOUDY    71  65  81 NE6       29.90R
EVANSVILLE     CLOUDY    73  70  90 N3        29.87S FOG
INDIANAPOLIS   CLOUDY    70  60  70 NE13      29.89S
LAFAYETTE      PTCLDY    65  58  78 NE10      29.93S
MADISON        MOCLDY    53  47  79 CALM      30.01S
MILWAUKEE      MOCLDY    56  47  71 CALM      30.02S
$$





USA.gov is the U.S. government's official web portal to all federal, state and local government web resources and services.